Temp
11 11 11 10 10 10 11 11 11 11 10 10 10 10 11 11 11 11 11 11 11 11 11 11 11 11 11 11 11 11 11 11 11 11 11 11 11 11 11 11 11 11
11 11 11 10 10 10 10 11 11 11 11 11 11 11 10 10 11 11 11 11 11 11 11 11 11 11 11 11 11 11 11 11 11 11 11 11 11 11 11 11 11 11
11 11 11 11 10 10 10 10 11 11 11 11 11 11 11 10 10 10 10 11 11 11 11 11 11 11 11 11 11 11 11 11 11 11 11 11 11 11 11 11 11 11
11 11 11 11 11 10 10 10 10 11 11 11 11 11 11 11 10 10 10 10 11 11 11 11 11 11 11 11 11 11 11 11 11 11 11 11 11 11 11 11 11 11
11 11 10 10 11 11 10 10 10 10 11 11 11 11 11 11 10 10 10 10 10 10 11 11 11 11 11 11 11 11 11 11 11 11 11 11 11 11 11 11 11 11
11 11 11 10 10 10 10 10 10 10 10 10 11 11 11 11 10 10 10 10 10 10 10 10 11 11 11 11 11 11 11 11 11 11 11 11 11 11 11 11 11 11
11 11 11 11 11 10 10 11 10 10 11 11 11 11 11 11 10 10 10 10 10 10 10 10 11 11 11 11 11 11 11 11 11 11 11 11 11 11 11 11 11 11
11 11 11 11 11 11 11 10 11 11 11 11 11 11 11 11 11 11 10 10 10 10 10 11 11 11 11 11 11 11 11 11 11 11 11 11 11 11 11 11 11 11
11 12 11 11 11 11 11 11 11 11 11 11 11 11 11 11 11 11 11 11 11 11 11 11 11 11 11 11 11 11 11 11 11 11 11 11 11 11 11 11 11 11
11 11 12 12 11 11 11 11 11 11 11 11 11 11 11 11 11 11 11 11 11 11 11 11 11 11 11 11 11 11 11 11 11 11 11 11 11 11 11 11 11 11
11 11 11 11 11 11 11 11 11 11 11 11 11 11 11 11 11 11 11 11 11 11 11 11 11 11 11 11 11 11 10 11 11 11 11 11 11 11 11 11 11 11
11 10 10 11 11 11 11 11 10 10 10 11 11 11 11 11 11 11 11 11 10 10 10 10 10 10 11 11 11 11 11 11 11 11 11 11 11 11 11 11 11 11
11 11 10 10 10 10 10 11 10 10 10 10 10 10 10 11 11 11 11 11 11 10 10 10 10 10 10 10 10 10 11 11 11 11 11 11 11 11 11 11 11 11
10 10 10 10 10 10 10 10 10 10 9 10 10 10 10 10 11 11 11 11 11 11 10 10 10 10 10 10 10 10 10 11 11 11 11 11 11 11 11 11 11 11
10 11 11 10 10 10 10 10 10 10 10 10 10 10 10 10 10 10 11 11 11 11 11 11 11 11 11 11 11 11 10 11 11 11 11 11 11 11 11 11 11 11
11 11 11 11 10 10 10 10 10 10 10 11 10 10 11 11 11 10 11 11 12 12 11 11 11 11 11 11 11 11 11 10 11 11 11 11 11 11 11 11 11 11
11 11 11 10 10 10 11 11 11 11 10 10 10 10 11 11 11 11 11 11 11 12 12 11 11 11 11 11 11 11 11 11 11 11 11 11 11 11 11 11 11 11
11 11 10 10 10 11 11 11 11 11 11 11 10 10 10 11 11 11 11 11 11 11 12 12 12 12 11 11 11 11 11 11 11 11 11 11 11 11 11 11 11 11
11 11 11 10 10 11 11 11 11 11 11 11 11 10 10 10 10 10 10 10 11 11 11 11 12 12 12 11 11 11 11 11 11 11 11 11 11 11 11 11 11 11
10 10 10 10 11 10 10 10 10 11 11 10 10 10 10 10 10 10 10 10 10 11 11 11 11 11 12 11 11 11 11 11 11 11 11 11 11 11 11 11 11 11
10 10 10 10 11 11 10 10 10 10 10 10 10 10 10 10 10 10 10 10 10 10 11 11 11 11 11 11 11 11 11 11 11 11 10 10 10 11 11 11 11 11
10 10 10 10 10 11 10 10 10 10 10 10 10 10 10 11 11 10 10 11 11 10 10 11 11 10 10 11 11 11 11 11 11 11 11 11 10 10 10 10 11 11
10 10 10 10 10 10 10 10 10 10 11 10 10 10 10 10 10 10 10 11 11 10 10 10 10 10 10 10 10 10 11 11 11 11 11 11 11 11 10 10 10 10
10 10 10 10 10 10 10 10 10 10 11 10 10 10 10 10 10 10 10 10 10 10 10 10 10 10 10 10 11 11 11 11 11 11 11 11 11 11 11 11 10 10
10 10 10 10 10 10 10 10 10 10 10 10 10 10 11 11 10 10 10 10 10 10 10 10 10 11 11 11 11 11 11 11 12 12 12 12 12 12 11 11 11 11
10 10 10 10 10 10 9 9 9 9 10 10 10 10 11 10 10 10 10 10 10 10 10 10 11 11 11 11 11 11 11 11 11 11 11 11 11 12 12 12 11 11
Height
3239 3241 3242 3243 3244 3245 3246 3247 3248 3249 3250 3251 3252 3253 3253 3254 3255 3256 3256 3257 3258 3258 3259 3259 3260 3260 3260 3261 3261 3262 3262 3263 3264 3264 3265 3266 3266 3267 3267 3268 3268 3269
3238 3240 3241 3243 3244 3246 3247 3247 3248 3249 3250 3251 3252 3253 3254 3254 3255 3256 3257 3257 3258 3259 3259 3260 3260 3260 3261 3261 3262 3262 3263 3264 3264 3265 3265 3266 3266 3267 3267 3268 3268 3268
3237 3239 3240 3242 3244 3245 3247 3247 3248 3249 3250 3251 3252 3253 3254 3255 3255 3256 3257 3257 3258 3259 3259 3260 3260 3261 3261 3262 3262 3263 3263 3264 3264 3265 3265 3266 3266 3267 3267 3268 3268 3268
3236 3237 3239 3241 3243 3245 3246 3247 3248 3249 3250 3251 3252 3253 3254 3254 3255 3256 3257 3257 3258 3259 3260 3260 3261 3261 3262 3262 3262 3263 3263 3264 3264 3265 3265 3266 3266 3266 3267 3267 3268 3268
3234 3236 3238 3240 3241 3243 3245 3246 3248 3249 3250 3251 3252 3253 3254 3254 3255 3256 3257 3257 3258 3259 3260 3260 3261 3262 3262 3262 3262 3263 3263 3264 3264 3264 3265 3265 3266 3266 3266 3267 3267 3267
3232 3234 3236 3238 3240 3242 3244 3245 3247 3249 3250 3251 3252 3252 3253 3254 3255 3256 3257 3257 3258 3259 3259 3260 3261 3261 3262 3262 3263 3263 3263 3264 3264 3264 3265 3265 3265 3265 3266 3266 3266 3266
3230 3232 3234 3236 3238 3240 3242 3244 3246 3248 3249 3250 3251 3252 3253 3254 3255 3256 3256 3257 3258 3258 3259 3260 3261 3261 3262 3262 3263 3263 3263 3264 3264 3264 3264 3265 3265 3265 3265 3265 3265 3266
3227 3230 3232 3234 3236 3238 3240 3242 3244 3246 3248 3249 3251 3252 3253 3254 3255 3255 3256 3257 3257 3258 3259 3260 3260 3261 3261 3262 3262 3263 3263 3263 3264 3264 3264 3264 3264 3264 3264 3264 3264 3265
3227 3228 3230 3232 3234 3236 3238 3241 3243 3245 3246 3248 3250 3251 3252 3253 3254 3254 3255 3256 3257 3257 3258 3259 3260 3260 3261 3261 3262 3262 3263 3263 3263 3263 3263 3263 3263 3263 3263 3263 3264 3264
3226 3228 3229 3230 3232 3235 3237 3239 3241 3243 3245 3246 3248 3249 3251 3252 3252 3253 3254 3254 3255 3256 3257 3258 3259 3259 3260 3261 3261 3261 3262 3262 3262 3262 3263 3263 3262 3262 3262 3262 3262 3263
3223 3225 3228 3229 3230 3232 3235 3237 3239 3241 3243 3245 3246 3247 3248 3250 3251 3251 3252 3252 3253 3254 3255 3256 3257 3258 3258 3259 3260 3260 3260 3261 3261 3261 3261 3261 3261 3261 3261 3261 3261 3261
3221 3223 3226 3228 3229 3230 3232 3234 3236 3239 3240 3242 3244 3245 3246 3247 3248 3250 3250 3251 3252 3252 3253 3254 3255 3256 3257 3257 3258 3258 3259 3259 3259 3260 3260 3260 3260 3260 3260 3260 3260 3260
3219 3221 3224 3227 3228 3228 3230 3232 3233 3235 3237 3239 3241 3242 3243 3244 3245 3247 3248 3249 3250 3250 3251 3252 3253 3253 3254 3255 3256 3256 3257 3257 3258 3258 3258 3259 3259 3259 3259 3259 3259 3259
3217 3219 3222 3224 3226 3227 3228 3230 3231 3231 3232 3234 3237 3238 3240 3241 3242 3243 3244 3246 3247 3248 3249 3249 3250 3251 3252 3253 3254 3254 3255 3255 3256 3256 3257 3257 3257 3257 3257 3257 3257 3257
3216 3218 3220 3222 3224 3224 3226 3227 3229 3229 3230 3231 3232 3234 3236 3238 3239 3240 3241 3242 3244 3245 3246 3247 3248 3248 3249 3250 3252 3252 3253 3253 3254 3254 3255 3255 3255 3255 3255 3255 3255 3255
3215 3217 3218 3220 3221 3222 3223 3224 3226 3228 3229 3230 3231 3231 3233 3235 3236 3237 3238 3239 3241 3242 3244 3245 3245 3246 3247 3248 3249 3250 3251 3251 3251 3252 3252 3253 3253 3253 3253 3253 3253 3253
3212 3214 3216 3217 3217 3219 3221 3223 3224 3226 3228 3229 3230 3231 3231 3232 3233 3234 3235 3236 3238 3239 3241 3242 3243 3244 3245 3246 3247 3248 3249 3249 3249 3249 3249 3250 3250 3250 3250 3251 3251 3251
3210 3212 3214 3215 3216 3218 3219 3221 3222 3223 3226 3228 3229 3230 3230 3230 3231 3232 3233 3234 3235 3236 3237 3239 3241 3242 3243 3244 3245 3246 3247 3247 3247 3247 3247 3247 3247 3247 3248 3248 3248 3248
3207 3210 3212 3214 3215 3217 3218 3219 3220 3222 3224 3226 3227 3228 3228 3229 3230 3230 3231 3232 3233 3233 3233 3235 3237 3239 3240 3241 3242 3243 3244 3244 3245 3245 3245 3244 3244 3245 3245 3245 3245 3245
3206 3207 3209 3211 3213 3214 3215 3216 3218 3219 3221 3222 3224 3224 3225 3226 3228 3229 3229 3230 3231 3231 3231 3231 3233 3235 3237 3238 3239 3240 3241 3241 3242 3242 3242 3242 3242 3242 3242 3243 3243 3243
3204 3205 3207 3208 3209 3210 3211 3213 3215 3217 3218 3219 3220 3221 3222 3223 3225 3226 3226 3227 3227 3228 3229 3230 3231 3233 3234 3235 3236 3237 3238 3238 3239 3239 3239 3240 3240 3240 3240 3240 3240 3240
3200 3203 3205 3205 3206 3207 3209 3210 3212 3214 3216 3216 3217 3218 3219 3220 3221 3222 3223 3223 3224 3225 3226 3228 3231 3232 3232 3232 3232 3233 3234 3234 3234 3235 3235 3236 3236 3237 3237 3237 3237 3237
3197 3199 3202 3203 3203 3205 3207 3207 3209 3210 3212 3212 3213 3215 3216 3217 3218 3218 3219 3220 3221 3222 3223 3225 3227 3229 3229 3229 3229 3229 3229 3229 3230 3230 3231 3231 3232 3233 3233 3233 3233 3233
3195 3196 3198 3200 3200 3201 3203 3205 3206 3207 3208 3208 3209 3210 3212 3213 3214 3214 3215 3216 3217 3218 3220 3221 3222 3223 3224 3225 3225 3225 3225 3226 3226 3226 3227 3227 3227 3228 3228 3229 3229 3230
3193 3194 3195 3197 3197 3197 3198 3200 3202 3203 3203 3204 3204 3206 3207 3208 3209 3210 3211 3212 3213 3215 3216 3216 3217 3219 3221 3221 3222 3222 3223 3223 3223 3223 3223 3224 3224 3224 3224 3224 3224 3225
3191 3192 3193 3194 3195 3195 3195 3196 3196 3197 3198 3199 3200 3201 3203 3204 3204 3205 3206 3207 3208 3210 3211 3211 3213 3216 3217 3219 3220 3220 3220 3220 3220 3220 3220 3221 3222 3221 3221 3221 3221 3221
Wind_Speed
12 14 14 13 11 11 10 10 9 9 9 9 9 9 9 9 8 8 7 6 5 5 4 5 5 5 5 6 6 6 7 8 9 10 10 10 10 10 10 9 8 7
11 13 15 14 13 11 10 10 10 9 9 9 9 9 9 8 8 8 7 7 6 5 4 4 4 4 4 5 6 6 7 8 9 10 10 10 10 10 10 10 9 8
11 11 13 14 14 12 11 11 10 10 10 9 9 9 9 8 8 8 7 7 7 6 5 4 4 4 5 5 5 6 6 8 9 9 10 11 10 10 10 10 10 10
10 10 11 13 14 14 13 12 11 11 11 10 10 9 8 8 8 7 7 7 7 6 6 5 4 4 5 5 6 5 6 6 8 8 9 10 10 10 10 10 10 10
10 10 10 11 13 15 15 14 12 12 11 11 10 10 9 8 8 7 7 7 7 7 7 6 6 5 5 5 5 6 6 6 7 8 8 8 9 10 10 11 11 10
11 10 10 11 12 14 15 15 14 13 12 12 11 11 10 9 8 8 7 7 7 7 7 7 7 6 6 6 5 5 6 6 6 7 7 7 8 8 9 10 10 10
12 11 11 11 12 13 15 15 15 14 13 13 12 12 11 10 9 9 8 8 8 8 8 8 8 8 7 7 6 6 6 6 6 6 6 6 6 7 8 9 10 9
14 14 13 13 13 13 13 14 15 15 15 14 13 13 12 11 10 10 10 9 9 8 8 9 9 9 9 8 8 8 7 6 6 6 6 6 6 7 7 8 9 9
15 15 14 14 14 13 13 13 13 14 15 16 15 14 14 13 12 12 11 11 10 10 9 9 10 10 10 9 9 9 9 8 8 7 7 7 7 7 7 8 8 8
16 16 15 15 15 14 14 13 12 13 14 15 16 16 16 15 14 14 14 13 12 11 11 10 10 10 11 10 10 10 10 10 10 9 9 8 8 8 8 8 8 8
18 18 18 17 16 15 15 14 13 13 13 14 16 17 17 17 16 16 16 16 14 13 13 12 10 11 11 11 11 11 11 11 11 11 11 10 10 10 9 9 9 9
19 20 20 20 18 16 16 15 15 14 14 14 14 16 17 17 17 17 17 17 16 15 14 13 12 12 12 12 12 12 12 12 12 12 12 11 11 11 11 11 10 11
20 22 22 22 20 17 16 16 16 16 16 16 15 15 16 17 16 16 16 17 17 16 16 15 14 14 14 14 14 14 13 13 13 13 13 12 12 12 12 12 12 12
19 22 24 24 21 18 17 18 18 18 18 18 18 16 16 17 17 16 15 15 16 16 17 17 17 16 15 15 15 16 16 15 14 15 14 13 13 12 12 13 13 13
19 22 24 24 22 20 20 21 21 20 19 20 21 19 17 17 18 18 18 16 15 16 17 18 19 18 17 17 16 17 17 17 16 16 16 16 15 14 14 14 14 14
20 22 24 24 23 23 23 24 23 22 21 21 22 22 20 18 18 19 19 19 17 16 16 18 19 19 18 18 17 17 17 18 18 17 17 17 17 17 17 16 16 16
20 22 24 24 25 25 25 25 24 22 22 22 23 23 21 19 18 19 19 19 19 18 16 16 17 18 18 18 18 18 17 18 19 19 18 18 18 19 18 18 18 18
20 21 23 25 25 25 27 27 26 25 24 24 24 24 23 22 21 21 20 19 19 19 18 16 14 14 16 17 17 18 18 18 19 20 21 21 20 19 19 19 19 19
20 20 21 22 24 24 25 27 26 26 26 26 25 25 26 25 24 24 23 22 21 20 19 18 16 14 14 14 15 16 17 18 18 19 21 22 22 21 20 20 20 20
21 20 20 21 22 22 23 25 25 26 28 28 28 28 29 29 27 26 26 25 24 23 21 21 20 18 16 15 14 14 15 16 17 18 19 20 20 21 20 20 21 21
23 22 22 21 21 23 24 25 26 27 28 28 29 29 30 30 29 28 28 28 28 27 26 24 23 22 21 19 17 16 16 17 17 18 19 19 19 20 21 21 22 22
24 24 24 23 23 24 25 27 28 28 29 29 29 30 29 29 30 30 30 30 30 31 31 28 26 25 25 25 24 22 21 21 20 20 20 21 21 21 22 23 24 24
22 23 23 23 24 25 26 27 27 26 28 29 29 28 29 30 31 31 31 31 31 33 33 32 29 27 27 28 29 29 28 26 25 25 24 23 23 23 23 24 25 26
17 18 19 20 22 24 26 27 27 25 25 26 26 27 28 29 31 32 32 32 32 32 33 34 33 31 29 29 30 31 31 30 28 27 27 26 25 24 25 25 25 26
11 12 13 14 16 20 23 25 26 26 25 25 25 25 26 27 29 30 31 33 34 33 33 34 35 33 32 30 29 29 30 30 29 29 28 28 27 26 26 27 28 27
9 9 9 9 10 13 17 19 22 24 26 27 27 26 26 25 26 26 27 29 31 32 32 32 32 32 33 33 32 30 29 29 30 31 32 32 32 31 29 29 30 30
Wind_Direction
215 217 218 219 218 214 208 203 198 193 190 185 183 182 181 180 177 174 174 175 174 170 175 181 180 180 177 178 180 176 180 184 184 189 190 189 190 188 191 194 192 196
212 216 220 223 223 221 218 214 209 205 201 197 195 192 189 190 190 188 184 183 187 186 185 190 185 185 186 186 189 188 190 191 190 195 197 197 199 197 199 202 200 203
211 214 219 224 226 226 225 223 222 216 211 209 207 203 199 198 198 198 195 192 194 194 196 199 194 193 194 193 194 195 196 197 199 203 204 205 206 205 206 209 209 207
215 214 216 221 225 228 228 229 230 228 224 221 219 217 213 210 206 204 204 203 200 199 203 207 207 204 202 201 199 197 201 204 203 206 210 210 212 212 212 214 217 213
220 218 216 217 221 226 230 231 233 235 234 232 229 229 226 223 220 216 216 215 210 209 209 210 213 213 210 209 206 201 204 210 211 210 212 214 216 217 216 217 219 217
224 224 221 218 219 223 227 232 235 237 238 236 234 235 234 233 233 232 230 226 223 223 223 220 220 220 220 222 220 213 210 212 215 216 218 221 221 219 220 221 222 219
216 224 228 226 223 221 223 227 232 237 240 239 236 237 240 238 237 238 238 235 233 234 236 237 235 232 231 234 234 230 224 219 217 218 224 229 229 227 225 223 226 226
212 216 223 230 232 227 223 224 228 233 237 240 239 240 244 243 242 243 243 242 242 243 244 245 246 244 240 240 242 240 238 234 227 225 228 234 235 233 230 226 226 228
223 219 218 224 232 234 229 224 226 230 233 237 239 241 245 248 249 250 250 251 252 252 251 247 245 247 245 243 244 244 243 241 238 237 236 239 241 237 232 228 225 223
229 229 226 224 226 233 238 234 230 230 232 236 239 240 243 246 248 252 254 255 257 258 259 256 248 245 245 245 247 249 250 248 244 242 241 240 242 241 238 234 227 223
225 228 231 229 223 225 234 239 239 240 237 237 241 244 244 244 245 249 253 255 258 260 261 261 255 248 246 246 248 250 253 253 250 246 244 242 241 240 242 240 235 231
224 227 232 231 224 219 224 230 235 242 245 242 244 248 250 250 248 247 249 253 256 257 258 259 256 252 251 251 251 252 252 254 255 252 247 245 244 243 244 244 242 241
223 227 230 229 225 220 222 227 225 228 239 242 242 245 249 253 254 251 248 249 251 253 254 255 255 253 251 252 254 256 256 256 258 258 255 250 248 246 246 247 247 247
218 222 225 226 223 218 222 231 228 221 226 234 237 238 242 248 254 256 253 248 248 250 252 254 254 253 252 251 253 256 259 260 259 261 262 259 256 252 250 249 249 249
219 222 224 224 223 219 221 229 231 224 222 230 235 234 234 237 244 253 258 255 249 246 249 252 253 254 254 254 254 255 258 261 260 258 259 260 260 259 256 254 253 252
226 225 226 226 225 225 224 227 232 228 223 228 236 237 234 231 231 238 250 258 259 252 247 248 252 254 256 257 258 257 257 259 260 258 255 255 256 256 256 256 255 254
230 228 228 227 228 231 231 231 234 234 228 229 235 238 240 237 232 231 236 246 257 261 256 248 248 253 256 258 260 261 260 259 261 261 259 255 252 252 253 254 254 254
235 233 231 230 232 235 236 236 236 236 237 236 236 239 242 243 241 239 239 239 243 252 257 256 251 249 253 256 258 262 264 263 262 262 262 260 256 252 251 251 252 253
243 242 240 239 240 239 238 238 239 241 242 240 239 241 244 245 244 245 248 247 243 244 250 255 256 251 248 249 251 256 261 263 263 260 260 262 261 258 255 253 252 252
246 246 248 248 249 248 244 242 243 246 245 242 240 241 244 246 246 247 248 250 250 251 250 252 254 256 256 253 250 250 254 257 259 258 258 260 262 262 261 259 257 256
246 246 247 248 250 253 253 250 248 248 245 240 239 241 243 245 246 247 248 249 252 255 256 255 255 256 259 260 257 255 255 255 254 253 254 256 258 262 265 266 264 262
247 246 245 246 249 253 255 254 253 252 248 242 239 241 244 244 244 246 247 249 252 254 254 255 256 256 257 259 261 260 260 259 256 254 254 254 255 259 262 267 269 268
247 247 244 244 247 251 254 254 253 252 249 245 243 244 245 245 245 246 249 252 255 256 255 254 253 254 253 254 258 261 261 260 259 259 258 255 254 256 258 261 266 269
248 248 245 243 244 248 251 250 248 246 245 245 248 251 250 250 249 249 252 255 256 259 260 256 251 250 250 251 256 260 262 262 262 262 262 260 256 254 255 257 259 263
253 254 252 249 247 249 251 250 248 246 245 246 251 254 253 252 252 253 255 257 258 260 261 258 253 251 252 255 258 261 262 264 265 265 265 265 263 259 256 256 257 258
260 262 263 260 255 254 256 256 254 251 248 246 248 251 252 251 251 254 257 258 259 259 259 259 258 259 260 260 260 261 262 264 267 266 265 266 268 266 263 261 259 259